Sigla Aeroporto Press.
(hPa)
Vento
(?)/(Km/h)
T
(C)
Td
(C)
Umid.
Rel.
(%)
Visibilidade
(Km)
Nebulosidade Condi??es do Tempo Hor?rio
Medi??o
SBAA CONCEIÇÃO ARAGUAIA BRASIL 1009 120/7.4 36 23 47 >= 10 Parcialmente nublado - 2017-04-27 20:00 GMT
SBAF AFONSOS ARPT (MIL) BRASIL 1022 290/9.3 20 19 93 2.0 Encoberto chuva leve e névoa úmida 2017-04-28 11:00 GMT
SBAM AMAPA AIRPORT BRASIL 1009 Ventos calmos 31 22 58 >= 10 Parcialmente nublado - 2011-10-13 18:00 GMT
SBAN ANAPOLIS (BRAZ-AFB) BRASIL 1022 120/13 18 16 88 1.0 Encoberto névoa úmida 2017-04-28 11:00 GMT
SBAR ARACAJU/SANTA MARIA BRASIL 1016 110/18.5 29 23 70 >= 10 Nublado - 2017-04-28 12:00 GMT
SBAT ALTA FLORESTA BRASIL 1015 160/13 25 23 88 >= 10 Nublado - 2017-04-28 11:00 GMT
SBAU ARAÇATUBA BRASIL 1016 270/3.7 - - - >= 10 - - 2017-04-27 23:00 GMT
SBBE BELEM/VAL DE CAES BRASIL 1013 300/5.6 28 24 78 >= 10 Nublado - 2017-04-28 12:00 GMT
SBBG BAGE/CMDT KRAEMER BRASIL 1022 310/11.1 11 5 66 >= 10 - - 2017-04-28 11:15 GMT
SBBH BELO HORIZ/PAMPULHA BRASIL 1021 90/11.1 21 18 83 >= 10 - - 2017-04-28 11:00 GMT
SBBI CURITIBA/BACACHERI BRASIL 1025 Ventos calmos 8 8 100 0.1 - nevoeiro 2017-04-28 11:00 GMT
SBBQ BARBACENA (CIV/MIL) BRASIL 1025 140/11.1 16 14 87 5.0 Encoberto névoa úmida 2017-04-28 10:00 GMT
SBBR BRASILIA (CIV/MIL) BRASIL 1022 130/3.7 21 19 88 >= 10 Parcialmente nublado - 2017-04-28 11:25 GMT
SBBU BAURU BRASIL 1021 70/13 15 15 100 >= 10 Parcialmente nublado - 2017-04-28 10:00 GMT
SBBV BOA VISTA (CIV/MIL) BRASIL 1014 90/18.5 27 22 74 >= 10 Nublado - 2017-04-28 12:00 GMT
SBBW BERRA DO GARCAS BRASIL 1014 - 29 23 70 >= 10 Parcialmente nublado - 2017-04-27 21:00 GMT
SBCB SAO PAULO/CUMBIC AB BRASIL 1021 160/3.7 25 20 73 >= 10 Nublado - 2017-04-28 11:00 GMT
SBCC CACHIMBO BRASIL 1016 190/7.4 22 21 94 4.0 Encoberto névoa úmida 2017-04-28 11:00 GMT
SBCF BELO HORIZ/TANCREDO BRASIL 1021 130/9.3 21 19 88 >= 10 Nublado - 2017-04-28 11:00 GMT
SBCG CAMPO GRANDE INTL BRASIL 1021 120/16.7 15 7 58 >= 10 - - 2017-04-28 12:00 GMT
SBCI CAROLINA AIRPORT BRASIL 1014 70/1.9 30 24 70 >= 10 Parcialmente nublado - 2017-04-28 11:00 GMT
SBCJ CARAJAS/MARABA BRASIL 1018 Ventos calmos 23 22 94 9.0 Encoberto - 2017-04-28 12:00 GMT
SBCO PORTO ALEGRE/CANOAS BRASIL 1024 330/9.3 10 8 87 >= 10 - - 2017-04-28 11:00 GMT
SBCP CAMPOS/BARTOLOMEU BRASIL 1020 200/25.9 23 23 100 4.0 Encoberto chuva leve 2017-04-28 11:00 GMT
SBCR CORUMBA INTL ARPT BRASIL 1019 320/5.6 19 13 68 >= 10 - - 2017-04-28 12:00 GMT
SBCT CURITIBA/AFONSO PENA BRASIL - 10/3.7 9 9 100 0.7 Nublado nevoeiro 2017-04-28 12:00 GMT
SBCV CARAVELAS AIRPORT BRASIL 1012 20/18.5 25 22 83 >= 10 - - 2008-10-27 22:00 GMT
SBCY CUIABA/MARECHAL RON BRASIL 1018 190/7.4 20 19 93 >= 10 Nublado - 2017-04-28 11:00 GMT
SBCZ CRUZEIRO DO SUL BRASIL 1013 Ventos calmos 25 24 94 >= 10 Parcialmente nublado - 2017-04-28 06:45 GMT
SBDN PRESIDENTE PRUDENTE BRASIL 1019 130/18.5 13 10 82 >= 10 - - 2017-04-28 10:00 GMT
SBEG EDUARDO GOMES INTL BRASIL 1014 170/5.6 25 24 94 >= 10 Nublado - 2017-04-28 12:00 GMT
SBEK JACAREACANGA BRASIL 1013 Ventos calmos 24 24 100 >= 10 Parcialmente nublado - 2017-04-28 11:00 GMT
SBES SAO PEDRO DA ALDEIA BRASIL 1021 210/14.8 22 19 83 8.0 Encoberto pancadas nas vizinhanças 2017-04-28 11:00 GMT
SBFI FOZ DO IGUACU ARPT BRASIL 1023 120/11.1 9 8 93 >= 10 - - 2017-04-28 11:00 GMT
SBFL FLORIANOPOLIS ARPT BRASIL 1024 280/7.4 16 10 67 >= 10 - - 2017-04-28 12:00 GMT
SBFN FERNANDO DE NORONHA BRASIL 1014 130/18.5 30 26 79 >= 10 Parcialmente nublado - 2017-04-28 12:00 GMT
SBFZ FORTALEZA/PINTO MAR BRASIL 1013 130/13 26 25 94 >= 10 Predominantemente claro pancadas de chuva leve 2017-04-28 12:00 GMT
SBGL GALEAO/RIO(CIV/MIL) BRASIL 1021 120/13 20 18 88 4.0 Nublado chuva leve e névoa úmida 2017-04-28 11:00 GMT
SBGO GOIANIA/SANTA GENOV BRASIL 1020 150/9.3 21 20 94 4.0 Encoberto névoa úmida 2017-04-28 11:25 GMT
SBGP GUARAPUAVA BRASIL 1014 330/14.8 27 21 69 >= 10 Nublado - 2013-01-25 13:00 GMT
SBGR GUARULHOS (CIV/MIL) BRASIL 1025 120/9.3 14 14 100 7.0 Encoberto chuvisco leve 2017-04-28 12:00 GMT
SBGW GUARATINGUETA (MIL) BRASIL 1022 260/3.7 17 15 88 3.5 Nublado névoa úmida 2017-04-28 10:00 GMT
SBHT ALTAMIRA BRASIL 1012 Ventos calmos 25 24 94 >= 10 Parcialmente nublado - 2017-04-28 11:00 GMT
SBIC ITACOATIARA BRASIL 1013 190/3.7 26 25 94 >= 10 Parcialmente nublado - 2017-04-28 11:00 GMT
SBIH ITAITUBA BRASIL 1012 Ventos calmos 25 24 94 >= 10 Predominantemente claro - 2017-04-28 10:00 GMT
SBIL ILHEUS AIRPORT BRASIL 1016 250/3.7 26 25 94 >= 10 Parcialmente nublado - 2017-04-28 11:00 GMT
SBIZ IMPERATRIZE BRASIL 1012 Ventos calmos 25 24 94 >= 10 - - 2017-04-28 10:00 GMT
SBJF JUIZ FORA/FRANCISCO BRASIL 1023 210/14.8 16 16 100 0.8 Encoberto chuvisco leve e nevoeiro 2017-04-28 11:00 GMT
SBJP JOAO PESSOA/PRES CA BRASIL 1014 190/13 27 25 88 >= 10 Parcialmente nublado - 2017-04-28 11:00 GMT
SBJR RIO/JACAREPAGUA BRASIL 1021 190/3.7 20 19 93 2.0 Encoberto chuva leve e névoa úmida 2017-04-28 10:00 GMT
SBJV JOINVILLE BRASIL 1024 120/3.7 13 11 87 >= 10 Predominantemente claro - 2017-04-28 11:00 GMT
SBKG CAMPINA GRANDE BRASIL 1016 100/7.4 23 22 94 >= 10 Nublado - 2017-04-28 10:00 GMT
SBKP CAMPINAS/VIRACOPOS BRASIL 1023 130/27.8 17 - - >= 10 - - 2017-04-28 12:00 GMT
SBLB LABREA-IN-AMAZONAS BRASIL 1018 - 23 21 88 5.0 Encoberto pancadas nas vizinhanças 2017-04-28 11:00 GMT
SBLN LINS BRASIL 1012 90/18.5 22 21 94 5.0 Nublado trovoadas com chuva leve 2008-01-11 08:00 GMT
SBLO LONDRINA AIRPORT BRASIL 1023 180/11.1 15 10 72 >= 10 - - 2017-04-28 12:00 GMT
SBLP BOM JESUS DA LAPA BRASIL 1011 180/11.1 35 16 32 >= 10 Predominantemente claro - 2017-04-27 19:00 GMT
SBLS LAGOA SANTA(CV/MIL) BRASIL 1021 140/16.7 21 19 88 >= 10 Nublado pancadas de chuva leve 2017-04-28 11:00 GMT
SBMA MARABA BRASIL 1014 350/7.4 28 23 74 >= 10 Parcialmente nublado - 2017-04-28 12:00 GMT
SBMD MONTE DOURADO BRASIL 1013 Ventos calmos 26 25 94 >= 10 Nublado - 2017-04-28 11:00 GMT
SBME MACAE BRASIL 1020 210/16.7 21 19 88 5.0 Encoberto chuva leve 2017-04-28 10:00 GMT
SBMG MARINGA BRASIL 1021 140/7.4 10 9 93 >= 10 - - 2017-04-28 11:00 GMT
SBMK MONTES CLAROS BRASIL 1019 270/5.6 24 18 69 >= 10 Predominantemente claro - 2017-04-28 11:00 GMT
SBMN MANAUS/PONTA PELADA BRASIL 1014 190/7.4 26 24 88 >= 10 Nublado - 2017-04-28 12:00 GMT
SBMO MACEIO/CAMPO PALMAR BRASIL 1016 220/7.4 27 24 83 >= 10 Nublado - 2017-04-28 12:00 GMT
SBMQ MACAPA INTL AIRPORT BRASIL 1013 360/11.1 30 26 79 >= 10 Nublado - 2017-04-28 12:00 GMT
SBMS MOCORO/17 ROSADO BRASIL 1013 140/5.6 30 24 70 >= 10 Parcialmente nublado - 2017-04-28 11:00 GMT
SBMT MARTE (CIV/MIL) BRASIL 1023 130/20.4 14 12 87 8.0 Encoberto - 2017-04-28 10:00 GMT
SBMY MANICORE BRASIL 1014 180/7.4 24 24 100 >= 10 Encoberto - 2017-04-28 11:00 GMT
SBNT NATAL/AUGUSTO SEVER BRASIL - 130/9.3 27 26 94 >= 10 Predominantemente claro pancadas nas vizinhanças 2017-04-28 12:00 GMT
SBOI OIAPOQUE BRASIL 1011 70/3.7 24 23 94 2.0 Encoberto chuva moderada 2017-04-27 20:00 GMT
SBPA PORTO ALEGRE/SALGAD BRASIL 1025 290/9.3 12 9 81 >= 10 - - 2017-04-28 12:00 GMT
SBPB PARNAIBA AIRPORT BRASIL 1012 120/13 30 26 79 >= 10 Predominantemente claro - 2017-04-28 11:00 GMT
SBPC POCOS DE CALDAS BRASIL 1024 110/7.4 18 18 100 >= 10 Encoberto - 2017-04-28 11:00 GMT
SBPF PASSO FUNDO/LAURO BRASIL 1021 280/11.1 13 9 76 >= 10 - - 2017-04-27 22:00 GMT
SBPK PELOTAS BRASIL 1022 290/9.3 17 7 51 >= 10 - - 2017-04-28 12:00 GMT
SBPL PETROLINA AIRPORT BRASIL 1017 150/13 27 20 65 >= 10 Parcialmente nublado - 2017-04-28 11:00 GMT
SBPN PORTO NACIONAL ARPT BRASIL 1012 300/9.3 28 24 78 >= 10 - - 2015-11-11 11:15 GMT
SBPP PONTA PORA INTL BRASIL 1020 130/40.8 15 7 58 >= 10 - - 2017-04-27 22:00 GMT
SBPV PORTO VELHO(CV/MIL) BRASIL 1014 200/9.3 22 21 94 >= 10 Predominantemente claro - 2017-04-28 12:00 GMT
SBQU VITORIA DA CONQUIST BRASIL - 360/1.9 - - - >= 10 - - 2008-07-23 03:00 GMT
SBQV VITORIA DA CONQUIST BRASIL 1022 110/18.5 27 11 36 >= 10 Predominantemente claro - 2011-09-12 17:00 GMT
SBRB RIO BRANCO/MEDICI BRASIL 1017 180/11.1 17 15 88 8.0 Nublado - 2017-04-28 11:00 GMT
SBRF RECIFE/GUARARAPES BRASIL 1014 110/14.8 30 25 74 >= 10 Predominantemente claro - 2017-04-28 12:00 GMT
SBRJ SANTOS DUMONT/RIO BRASIL 1021 160/11.1 20 19 93 4.5 Encoberto chuva leve e névoa úmida 2017-04-28 11:00 GMT
SBRP LEITE LOPES/RIBEIR& BRASIL 1020 150/13 19 17 88 5.0 Nublado névoa úmida 2017-04-28 11:15 GMT
SBSC SANTA CRUZ (MIL) BRASIL 1022 170/14.8 20 19 93 4.0 Encoberto chuva leve 2017-04-28 11:00 GMT
SBSJ SAO JOSE DOS CAMPO& BRASIL 1024 150/16.7 16 14 87 9.0 Nublado - 2017-04-28 11:00 GMT
SBSL SAO LUIS/MARECHAL BRASIL 1013 100/14.8 29 25 79 >= 10 Parcialmente nublado - 2017-04-28 12:00 GMT
SBSM SANTA MARIA(CV/MIL) BRASIL 1024 Ventos calmos 8 8 100 >= 103.0 ao Leste Nenhuma nuvem significativa bancos de nevoeiro 2017-04-28 11:00 GMT
SBSN SANTAREM INTL ARPT BRASIL 1013 120/1.9 25 24 94 >= 10 Nublado - 2017-04-28 11:00 GMT
SBSP SAO PAULO/CONGONHAS BRASIL 1025 150/22.2 14 11 82 >= 10 Encoberto - 2017-04-28 12:00 GMT
SBST SANTOS (BRAZ-AFB) BRASIL 1023 -/1.9 19 17 88 >= 10 Encoberto - 2017-04-28 11:00 GMT
SBSV SALVADOR/DOIS JULHO BRASIL 1016 90/14.8 29 23 70 >= 10 Parcialmente nublado - 2017-04-28 12:00 GMT
SBSY SANTA ISABEL MORRO BRASIL 1021 210/7.4 15 15 100 >= 10 Parcialmente nublado - 2017-04-28 10:00 GMT
SBTA TAUBATE BRASIL 1022 180/3.7 19 16 82 4.0 Encoberto névoa úmida 2017-04-28 11:00 GMT
SBTC TAPURUCUARA BRASIL 1014 60/7.4 28 24 78 >= 10 Predominantemente claro - 2017-04-27 20:00 GMT
SBTE TERESINA AIRPORT BRASIL 1013 Ventos calmos 27 25 88 >= 10 Nublado - 2017-04-28 11:00 GMT
SBTF TEFE BRASIL 1014 150/7.4 25 24 94 >= 10 Nublado - 2017-04-28 12:00 GMT
SBTK TARAUACA BRASIL 1011 90/5.6 26 24 88 >= 10 Nublado - 2017-04-27 22:00 GMT
SBTT TABATINGA INTL ARPT BRASIL 1014 140/5.6 - - - >= 10 Nublado - 2017-04-28 12:00 GMT
SBTU TUCURUI BRASIL 1015 110/3.7 - - - >= 10 Nublado - 2017-04-28 11:00 GMT
SBUA SAO GABRIEL CACHOEI BRASIL 1010 290/7.4 23 23 100 3.0 Encoberto trovoadas com chuva moderada 2017-04-27 20:00 GMT
SBUF PAULO AFONSO BRASIL 1011 100/20.4 35 15 30 >= 10 - - 2017-04-27 19:00 GMT
SBUG URUGUAIANA/RUBEM BRASIL 1024 20/7.4 13 11 87 >= 10 - - 2017-04-28 12:00 GMT
SBUL UBERLANDIA BRASIL 1021 150/11.1 18 17 93 >= 10 Nublado - 2017-04-28 10:00 GMT
SBUP URUBUPUNGA/CASTILHO BRASIL 1011 270/16.7 25 20 73 >= 10 Encoberto trovoadas sem precipitaçoes 2007-11-07 22:00 GMT
SBUR UBERABA BRASIL 1020 140/3.7 18 18 100 0.2 - nevoeiro 2017-04-28 10:00 GMT
SBVH VILHENA BRASIL 1018 130/18.5 16 15 93 9.0 Encoberto - 2017-04-28 11:00 GMT
SBVT VITORIA/GOIABEIRAS BRASIL 1019 230/22.2 27 21 69 >= 10 Nublado - 2017-04-28 12:00 GMT
SBYA IAUARETE (PRIVATE) BRASIL 1008 230/5.6 31 23 62 >= 10 Parcialmente nublado - 2015-11-06 19:00 GMT
SBYS PIRASSUNUNGA/CAMPO BRASIL 1021 210/9.3 15 15 100 6.0 Predominantemente claro - 2017-04-28 10:00 GMT